Location: Binningen
(47.7924°N, 8.7261°E)
Time: 04:49:11
(UTC+00:00)

ARIANE 5 R/B - Pass Details

Date: 17 May 2021
Orbit: 620 x 656 km, 98.1° (Epoch: 09 June)

Event Time Altitude Azimuth Distance (km) Brightness Sun altitude
Exits shadow 19:55:47 11° 129° (SE) 1,926 4.4 -8.5°
Maximum altitude 19:59:29 33° 67° (ENE) 1,054 3.5 -8.9°
Drops below altitude 10° 20:03:22 10° 4° (N) 2,004 5.8 -9.4°
Sets 20:05:44 0° 354° (N) 2,919 6.9 -9.7°
